Wetterdaten: Montag, 17.03.2014
Datum Zeit Temperatur Luftfeuchte Luftdruck Regen Wind Richtung Richtung Taupunkt Windchill Windben
17.03.2014 00:00 7,6 C 69 % 1021,8 hPa 0,0 l/m 0,0 km/h (0 Bft) SW 225 2,3 C 16,1 C 0,0 km/h (0 Bft)
17.03.2014 00:05 7,4 C 69 % 1021,8 hPa 0,0 l/m 0,0 km/h (0 Bft) SW 225 2,1 C 16,1 C 0,0 km/h (0 Bft)
17.03.2014 00:10 7,3 C 70 % 1021,8 hPa 0,0 l/m 0,0 km/h (0 Bft) SW 225 2,2 C 16,1 C 0,0 km/h (0 Bft)
17.03.2014 00:15 7,5 C 70 % 1021,8 hPa 0,0 l/m 0,0 km/h (0 Bft) SW 225 2,4 C 16,1 C 0,0 km/h (0 Bft)
17.03.2014 00:20 7,3 C 70 % 1021,8 hPa 0,0 l/m 0,0 km/h (0 Bft) SW 225 2,2 C 16,1 C 0,0 km/h (0 Bft)
17.03.2014 00:25 7,2 C 70 % 1021,8 hPa 0,0 l/m 0,0 km/h (0 Bft) SW 225 2,1 C 16,1 C 0,0 km/h (0 Bft)
17.03.2014 00:30 6,7 C 70 % 1021,8 hPa 0,0 l/m 0,0 km/h (0 Bft) SW 225 1,6 C 16,1 C 0,0 km/h (0 Bft)
17.03.2014 00:35 6,9 C 72 % 1021,8 hPa 0,0 l/m 0,0 km/h (0 Bft) SW 225 2,2 C 16,1 C 0,0 km/h (0 Bft)
17.03.2014 00:40 7,4 C 72 % 1021,8 hPa 0,0 l/m 0,0 km/h (0 Bft) SW 225 2,7 C 16,1 C 0,0 km/h (0 Bft)
17.03.2014 00:45 7,6 C 71 % 1021,9 hPa 0,0 l/m 0,0 km/h (0 Bft) SW 225 2,7 C 16,1 C 0,0 km/h (0 Bft)
17.03.2014 00:50 7,8 C 70 % 1021,9 hPa 0,0 l/m 0,0 km/h (0 Bft) SW 225 2,7 C 16,1 C 0,0 km/h (0 Bft)
17.03.2014 00:55 7,6 C 70 % 1021,9 hPa 0,0 l/m 0,0 km/h (0 Bft) SW 225 2,5 C 16,1 C 0,0 km/h (0 Bft)
17.03.2014 01:00 7,5 C 71 % 1021,9 hPa 0,0 l/m 0,0 km/h (0 Bft) SW 225 2,6 C 16,1 C 0,0 km/h (0 Bft)
17.03.2014 01:05 7,1 C 72 % 1021,9 hPa 0,0 l/m 0,0 km/h (0 Bft) SW 225 2,4 C 16,1 C 0,0 km/h (0 Bft)
17.03.2014 01:10 7,1 C 73 % 1021,9 hPa 0,0 l/m 0,0 km/h (0 Bft) SW 225 2,6 C 16,1 C 0,0 km/h (0 Bft)
17.03.2014 01:15 7,1 C 74 % 1021,9 hPa 0,0 l/m 0,0 km/h (0 Bft) SW 225 2,8 C 16,1 C 0,0 km/h (0 Bft)
17.03.2014 01:20 7,6 C 74 % 1021,9 hPa 0,0 l/m 0,0 km/h (0 Bft) SW 225 3,3 C 16,1 C 0,0 km/h (0 Bft)
17.03.2014 01:25 7,3 C 74 % 1021,9 hPa 0,0 l/m 0,0 km/h (0 Bft) SW 225 3,0 C 16,1 C 0,0 km/h (0 Bft)
17.03.2014 01:30 7,2 C 74 % 1021,9 hPa 0,0 l/m 0,0 km/h (0 Bft) SW 225 2,9 C 16,1 C 0,0 km/h (0 Bft)
17.03.2014 01:35 7,3 C 75 % 1021,9 hPa 0,0 l/m 0,0 km/h (0 Bft) SW 225 3,2 C 16,1 C 0,0 km/h (0 Bft)
17.03.2014 01:40 7,7 C 75 % 1021,9 hPa 0,0 l/m 0,0 km/h (0 Bft) SW 225 3,6 C 16,1 C 0,0 km/h (0 Bft)
17.03.2014 01:45 7,8 C 74 % 1021,9 hPa 0,0 l/m 0,0 km/h (0 Bft) SW 225 3,5 C 16,1 C 0,0 km/h (0 Bft)
17.03.2014 01:50 8,1 C 72 % 1021,9 hPa 0,0 l/m 0,0 km/h (0 Bft) SW 225 3,4 C 16,1 C 0,0 km/h (0 Bft)
17.03.2014 01:55 8,0 C 72 % 1021,9 hPa 0,0 l/m 0,0 km/h (0 Bft) SW 225 3,3 C 16,1 C 0,0 km/h (0 Bft)
17.03.2014 02:00 8,0 C 71 % 1021,9 hPa 0,0 l/m 0,0 km/h (0 Bft) SW 225 3,1 C 16,1 C 0,0 km/h (0 Bft)
17.03.2014 02:05 7,7 C 71 % 1021,9 hPa 0,0 l/m 0,0 km/h (0 Bft) SW 225 2,8 C 16,1 C 0,0 km/h (0 Bft)
17.03.2014 02:10 7,9 C 71 % 1021,9 hPa 0,0 l/m 0,0 km/h (0 Bft) SW 225 3,0 C 16,1 C 0,0 km/h (0 Bft)
17.03.2014 02:15 8,1 C 70 % 1021,9 hPa 0,0 l/m 0,0 km/h (0 Bft) SW 225 3,0 C 16,1 C 0,0 km/h (0 Bft)
17.03.2014 02:20 7,9 C 70 % 1021,9 hPa 0,0 l/m 0,0 km/h (0 Bft) SW 225 2,8 C 16,1 C 0,0 km/h (0 Bft)
17.03.2014 02:23 7,9 C 70 % 1021,7 hPa 0,0 l/m 0,0 km/h (0 Bft) SW 225 2,8 C 16,1 C 0,0 km/h (0 Bft)
17.03.2014 02:25 7,9 C 70 % 1021,7 hPa 0,0 l/m 0,0 km/h (0 Bft) SW 225 2,8 C 16,1 C 0,0 km/h (0 Bft)
17.03.2014 02:30 8,0 C 70 % 1021,7 hPa 0,0 l/m 0,0 km/h (0 Bft) SW 225 2,9 C 16,1 C 0,0 km/h (0 Bft)
17.03.2014 02:35 8,2 C 68 % 1021,7 hPa 0,0 l/m 0,0 km/h (0 Bft) SW 225 2,7 C 16,1 C 0,0 km/h (0 Bft)
17.03.2014 02:40 8,2 C 67 % 1021,7 hPa 0,0 l/m 0,0 km/h (0 Bft) SW 225 2,4 C 16,1 C 0,0 km/h (0 Bft)
17.03.2014 02:45 8,0 C 68 % 1021,8 hPa 0,0 l/m 0,0 km/h (0 Bft) SW 225 2,5 C 16,1 C 0,0 km/h (0 Bft)
17.03.2014 02:50 7,7 C 69 % 1021,8 hPa 0,0 l/m 0,0 km/h (0 Bft) SW 225 2,4 C 16,1 C 0,0 km/h (0 Bft)
17.03.2014 02:55 7,6 C 69 % 1021,8 hPa 0,0 l/m 0,0 km/h (0 Bft) SW 225 2,3 C 16,1 C 0,0 km/h (0 Bft)
17.03.2014 03:00 7,7 C 70 % 1021,8 hPa 0,0 l/m 0,0 km/h (0 Bft) SW 225 2,6 C 16,1 C 0,0 km/h (0 Bft)
17.03.2014 03:05 7,6 C 70 % 1021,6 hPa 0,0 l/m 0,0 km/h (0 Bft) SW 225 2,5 C 16,1 C 0,0 km/h (0 Bft)
17.03.2014 03:10 7,4 C 70 % 1021,6 hPa 0,0 l/m 0,0 km/h (0 Bft) SW 225 2,3 C 16,1 C 0,0 km/h (0 Bft)
17.03.2014 03:15 7,3 C 70 % 1021,6 hPa 0,0 l/m 0,0 km/h (0 Bft) SW 225 2,2 C 16,1 C 0,0 km/h (0 Bft)
17.03.2014 03:20 7,1 C 71 % 1021,6 hPa 0,0 l/m 0,0 km/h (0 Bft) SW 225 2,2 C 16,1 C 0,0 km/h (0 Bft)
17.03.2014 03:25 7,1 C 71 % 1021,4 hPa 0,0 l/m 0,0 km/h (0 Bft) SW 225 2,2 C 16,1 C 0,0 km/h (0 Bft)
17.03.2014 03:30 6,9 C 72 % 1021,4 hPa 0,0 l/m 0,0 km/h (0 Bft) SW 225 2,2 C 16,1 C 0,0 km/h (0 Bft)
17.03.2014 03:35 7,0 C 72 % 1021,4 hPa 0,0 l/m 0,0 km/h (0 Bft) SW 225 2,3 C 16,1 C 0,0 km/h (0 Bft)
17.03.2014 03:40 7,0 C 72 % 1021,4 hPa 0,0 l/m 0,0 km/h (0 Bft) SW 225 2,3 C 16,1 C 0,0 km/h (0 Bft)
17.03.2014 03:45 7,0 C 72 % 1021,0 hPa 0,0 l/m 0,0 km/h (0 Bft) SW 225 2,3 C 16,1 C 0,0 km/h (0 Bft)
17.03.2014 03:50 6,9 C 72 % 1021,0 hPa 0,0 l/m 0,0 km/h (0 Bft) SW 225 2,2 C 16,1 C 0,0 km/h (0 Bft)
17.03.2014 03:55 6,8 C 72 % 1021,0 hPa 0,0 l/m 0,0 km/h (0 Bft) SW 225 2,1 C 16,1 C 0,0 km/h (0 Bft)
17.03.2014 04:00 6,6 C 73 % 1021,0 hPa 0,0 l/m 0,0 km/h (0 Bft) SW 225 2,1 C 16,1 C 0,0 km/h (0 Bft)
17.03.2014 04:05 6,6 C 73 % 1021,0 hPa 0,0 l/m 0,0 km/h (0 Bft) SW 225 2,1 C 16,1 C 0,0 km/h (0 Bft)
17.03.2014 04:10 6,6 C 73 % 1021,0 hPa 0,0 l/m 0,0 km/h (0 Bft) SW 225 2,1 C 16,1 C 0,0 km/h (0 Bft)
17.03.2014 04:15 6,7 C 74 % 1021,0 hPa 0,0 l/m 0,0 km/h (0 Bft) SW 225 2,4 C 16,1 C 0,0 km/h (0 Bft)
17.03.2014 04:20 6,5 C 74 % 1021,0 hPa 0,0 l/m 0,0 km/h (0 Bft) SW 225 2,2 C 16,1 C 0,0 km/h (0 Bft)
17.03.2014 04:25 6,4 C 74 % 1020,9 hPa 0,0 l/m 0,0 km/h (0 Bft) SW 225 2,1 C 16,1 C 0,0 km/h (0 Bft)
17.03.2014 04:30 6,3 C 74 % 1020,9 hPa 0,0 l/m 0,0 km/h (0 Bft) SW 225 2,0 C 16,1 C 0,0 km/h (0 Bft)
17.03.2014 04:35 5,9 C 75 % 1020,9 hPa 0,0 l/m 0,0 km/h (0 Bft) SW 225 1,8 C 16,1 C 0,0 km/h (0 Bft)
17.03.2014 04:40 5,9 C 76 % 1020,9 hPa 0,0 l/m 0,0 km/h (0 Bft) SW 225 2,0 C 16,1 C 0,0 km/h (0 Bft)
17.03.2014 04:45 5,7 C 77 % 1020,9 hPa 0,0 l/m 0,0 km/h (0 Bft) SW 225 2,0 C 16,1 C 0,0 km/h (0 Bft)
17.03.2014 04:50 5,6 C 77 % 1020,9 hPa 0,0 l/m 0,0 km/h (0 Bft) SW 225 1,9 C 16,1 C 0,0 km/h (0 Bft)
17.03.2014 04:55 5,5 C 78 % 1020,9 hPa 0,0 l/m 0,0 km/h (0 Bft) SW 225 2,0 C 16,1 C 0,0 km/h (0 Bft)
17.03.2014 05:00 5,9 C 78 % 1020,9 hPa 0,0 l/m 0,0 km/h (0 Bft) SW 225 2,4 C 16,1 C 0,0 km/h (0 Bft)
17.03.2014 05:05 5,9 C 78 % 1020,8 hPa 0,0 l/m 0,0 km/h (0 Bft) SW 225 2,4 C 16,1 C 0,0 km/h (0 Bft)
17.03.2014 05:10 5,8 C 78 % 1020,8 hPa 0,0 l/m 0,0 km/h (0 Bft) SW 225 2,3 C 16,1 C 0,0 km/h (0 Bft)
17.03.2014 05:15 5,6 C 78 % 1020,8 hPa 0,0 l/m 0,0 km/h (0 Bft) SW 225 2,1 C 16,1 C 0,0 km/h (0 Bft)
17.03.2014 05:20 5,5 C 78 % 1020,8 hPa 0,0 l/m 0,0 km/h (0 Bft) SW 225 2,0 C 16,1 C 0,0 km/h (0 Bft)
17.03.2014 05:25 5,4 C 78 % 1020,9 hPa 0,0 l/m 0,0 km/h (0 Bft) SW 225 1,9 C 16,1 C 0,0 km/h (0 Bft)
17.03.2014 05:30 5,4 C 79 % 1020,9 hPa 0,0 l/m 0,0 km/h (0 Bft) SW 225 2,1 C 16,1 C 0,0 km/h (0 Bft)
17.03.2014 05:35 5,4 C 79 % 1020,9 hPa 0,0 l/m 0,0 km/h (0 Bft) SW 225 2,1 C 16,1 C 0,0 km/h (0 Bft)
17.03.2014 05:40 5,6 C 79 % 1020,9 hPa 0,0 l/m 0,0 km/h (0 Bft) SW 225 2,3 C 16,1 C 0,0 km/h (0 Bft)
17.03.2014 05:45 5,6 C 78 % 1020,6 hPa 0,0 l/m 0,0 km/h (0 Bft) SW 225 2,1 C 16,1 C 0,0 km/h (0 Bft)
17.03.2014 05:50 5,8 C 78 % 1020,6 hPa 0,0 l/m 0,0 km/h (0 Bft) SW 225 2,3 C 16,1 C 0,0 km/h (0 Bft)
17.03.2014 05:55 5,4 C 78 % 1020,6 hPa 0,0 l/m 0,0 km/h (0 Bft) SW 225 1,9 C 16,1 C 0,0 km/h (0 Bft)
17.03.2014 06:00 5,4 C 78 % 1020,6 hPa 0,0 l/m 0,0 km/h (0 Bft) SW 225 1,9 C 16,1 C 0,0 km/h (0 Bft)
17.03.2014 06:05 5,4 C 78 % 1020,9 hPa 0,0 l/m 0,0 km/h (0 Bft) SW 225 1,9 C 16,1 C 0,0 km/h (0 Bft)
17.03.2014 06:10 5,0 C 78 % 1020,9 hPa 0,0 l/m 0,0 km/h (0 Bft) SW 225 1,5 C 16,1 C 0,0 km/h (0 Bft)
17.03.2014 06:15 4,8 C 78 % 1020,9 hPa 0,0 l/m 0,0 km/h (0 Bft) SW 225 1,3 C 16,1 C 0,0 km/h (0 Bft)
17.03.2014 06:20 4,5 C 78 % 1020,9 hPa 0,0 l/m 0,0 km/h (0 Bft) SW 225 1,0 C 16,1 C 0,0 km/h (0 Bft)
17.03.2014 06:25 4,6 C 79 % 1021,2 hPa 0,0 l/m 0,0 km/h (0 Bft) SW 225 1,3 C 16,1 C 0,0 km/h (0 Bft)
17.03.2014 06:30 5,0 C 79 % 1021,2 hPa 0,0 l/m 0,0 km/h (0 Bft) SW 225 1,7 C 16,1 C 0,0 km/h (0 Bft)
17.03.2014 06:35 4,9 C 79 % 1021,2 hPa 0,0 l/m 0,0 km/h (0 Bft) SW 225 1,6 C 16,1 C 0,0 km/h (0 Bft)
17.03.2014 06:40 5,1 C 78 % 1021,2 hPa 0,0 l/m 0,0 km/h (0 Bft) SW 225 1,6 C 16,1 C 0,0 km/h (0 Bft)
17.03.2014 06:45 5,1 C 78 % 1021,4 hPa 0,0 l/m 0,0 km/h (0 Bft) SW 225 1,6 C 16,1 C 0,0 km/h (0 Bft)
17.03.2014 06:50 5,3 C 78 % 1021,4 hPa 0,0 l/m 0,0 km/h (0 Bft) SW 225 1,8 C 16,1 C 0,0 km/h (0 Bft)
17.03.2014 06:55 5,6 C 78 % 1021,4 hPa 0,0 l/m 0,0 km/h (0 Bft) SW 225 2,1 C 16,1 C 0,0 km/h (0 Bft)
17.03.2014 07:00 5,7 C 77 % 1021,4 hPa 0,0 l/m 0,0 km/h (0 Bft) SW 225 2,0 C 16,1 C 0,0 km/h (0 Bft)
17.03.2014 07:05 5,9 C 76 % 1021,4 hPa 0,0 l/m 0,0 km/h (0 Bft) SW 225 2,0 C 16,1 C 0,0 km/h (0 Bft)
17.03.2014 07:10 6,0 C 74 % 1021,4 hPa 0,0 l/m 0,0 km/h (0 Bft) SW 225 1,7 C 16,1 C 0,0 km/h (0 Bft)
17.03.2014 07:15 5,9 C 75 % 1021,4 hPa 0,0 l/m 0,0 km/h (0 Bft) SW 225 1,8 C 16,1 C 0,0 km/h (0 Bft)
17.03.2014 07:18 6,4 C 73 % 1021,4 hPa 0,0 l/m 0,0 km/h (0 Bft) SW 225 1,9 C 16,1 C 0,0 km/h (0 Bft)
17.03.2014 07:20 6,4 C 73 % 1021,4 hPa 0,0 l/m 0,0 km/h (0 Bft) SW 225 1,9 C 16,1 C 0,0 km/h (0 Bft)
17.03.2014 07:25 6,2 C 72 % 1021,4 hPa 0,0 l/m 0,0 km/h (0 Bft) SW 225 1,5 C 16,1 C 0,0 km/h (0 Bft)
17.03.2014 07:30 6,3 C 72 % 1021,4 hPa 0,0 l/m 0,0 km/h (0 Bft) SW 225 1,6 C 16,1 C 0,0 km/h (0 Bft)
17.03.2014 07:35 6,5 C 71 % 1021,4 hPa 0,0 l/m 0,0 km/h (0 Bft) SW 225 1,6 C 16,1 C 0,0 km/h (0 Bft)
17.03.2014 07:40 6,6 C 71 % 1021,4 hPa 0,0 l/m 0,0 km/h (0 Bft) SW 225 1,7 C 16,1 C 0,0 km/h (0 Bft)
17.03.2014 07:45 6,4 C 71 % 1021,6 hPa 0,0 l/m 0,0 km/h (0 Bft) SW 225 1,5 C 16,1 C 0,0 km/h (0 Bft)
17.03.2014 07:50 6,6 C 71 % 1021,6 hPa 0,0 l/m 0,0 km/h (0 Bft) SW 225 1,7 C 16,1 C 0,0 km/h (0 Bft)
17.03.2014 07:55 6,8 C 70 % 1021,6 hPa 0,0 l/m 0,0 km/h (0 Bft) SW 225 1,7 C 16,1 C 0,0 km/h (0 Bft)
17.03.2014 08:00 7,0 C 70 % 1021,6 hPa 0,0 l/m 0,0 km/h (0 Bft) SW 225 1,9 C 16,1 C 0,0 km/h (0 Bft)
17.03.2014 08:05 7,9 C 69 % 1021,8 hPa 0,0 l/m 0,0 km/h (0 Bft) SW 225 2,6 C 16,1 C 0,0 km/h (0 Bft)
17.03.2014 08:10 8,3 C 66 % 1021,8 hPa 0,0 l/m 0,0 km/h (0 Bft) SW 225 2,3 C 16,1 C 0,0 km/h (0 Bft)
17.03.2014 08:15 7,7 C 67 % 1021,8 hPa 0,0 l/m 0,0 km/h (0 Bft) SW 225 2,0 C 16,1 C 0,0 km/h (0 Bft)
17.03.2014 08:20 8,5 C 66 % 1021,8 hPa 0,0 l/m 0,0 km/h (0 Bft) SW 225 2,5 C 16,1 C 0,0 km/h (0 Bft)
17.03.2014 08:25 9,7 C 62 % 1022,2 hPa 0,0 l/m 0,0 km/h (0 Bft) SW 225 2,8 C 16,1 C 0,0 km/h (0 Bft)
17.03.2014 08:30 10,6 C 59 % 1022,2 hPa 0,0 l/m 0,0 km/h (0 Bft) SW 225 2,9 C 16,1 C 0,0 km/h (0 Bft)
17.03.2014 08:35 12,7 C 57 % 1022,2 hPa 0,0 l/m 0,0 km/h (0 Bft) SW 225 4,4 C 16,1 C 0,0 km/h (0 Bft)
17.03.2014 08:40 13,2 C 52 % 1022,2 hPa 0,0 l/m 0,0 km/h (0 Bft) SW 225 3,6 C 16,1 C 0,0 km/h (0 Bft)
17.03.2014 08:45 13,6 C 49 % 1022,3 hPa 0,0 l/m 0,0 km/h (0 Bft) SW 225 3,1 C 16,1 C 0,0 km/h (0 Bft)
17.03.2014 08:50 13,5 C 49 % 1022,3 hPa 0,0 l/m 0,0 km/h (0 Bft) SW 225 3,0 C 16,1 C 0,0 km/h (0 Bft)
17.03.2014 08:55 14,5 C 49 % 1022,3 hPa 0,0 l/m 0,0 km/h (0 Bft) SW 225 3,9 C 16,1 C 0,0 km/h (0 Bft)
17.03.2014 09:00 15,2 C 46 % 1022,3 hPa 0,0 l/m 0,0 km/h (0 Bft) SW 225 3,7 C 16,1 C 0,0 km/h (0 Bft)
17.03.2014 09:05 15,3 C 46 % 1022,5 hPa 0,0 l/m 0,0 km/h (0 Bft) SW 225 3,8 C 16,1 C 0,0 km/h (0 Bft)
17.03.2014 09:10 15,2 C 46 % 1022,5 hPa 0,0 l/m 0,0 km/h (0 Bft) SW 225 3,7 C 16,1 C 0,0 km/h (0 Bft)
17.03.2014 09:15 15,3 C 44 % 1022,5 hPa 0,0 l/m 0,0 km/h (0 Bft) SW 225 3,1 C 16,1 C 0,0 km/h (0 Bft)
17.03.2014 09:20 15,8 C 45 % 1022,5 hPa 0,0 l/m 0,0 km/h (0 Bft) SW 225 3,9 C 16,1 C 0,0 km/h (0 Bft)
17.03.2014 09:25 15,2 C 42 % 1022,7 hPa 0,0 l/m 0,0 km/h (0 Bft) SW 225 2,4 C 16,1 C 0,0 km/h (0 Bft)
17.03.2014 09:30 15,4 C 43 % 1022,7 hPa 0,0 l/m 0,0 km/h (0 Bft) SW 225 2,9 C 16,1 C 0,0 km/h (0 Bft)
17.03.2014 09:35 15,2 C 43 % 1022,7 hPa 0,0 l/m 0,0 km/h (0 Bft) SW 225 2,7 C 16,1 C 0,0 km/h (0 Bft)
17.03.2014 09:40 15,6 C 43 % 1022,7 hPa 0,0 l/m 0,0 km/h (0 Bft) SW 225 3,1 C 16,1 C 0,0 km/h (0 Bft)
17.03.2014 09:45 15,9 C 42 % 1023,0 hPa 0,0 l/m 0,0 km/h (0 Bft) SW 225 3,0 C 16,1 C 0,0 km/h (0 Bft)
17.03.2014 09:50 15,9 C 42 % 1023,0 hPa 0,0 l/m 0,0 km/h (0 Bft) SW 225 3,0 C 16,1 C 0,0 km/h (0 Bft)
17.03.2014 09:55 16,1 C 40 % 1023,0 hPa 0,0 l/m 0,0 km/h (0 Bft) SW 225 2,5 C 16,1 C 0,0 km/h (0 Bft)
17.03.2014 10:00 16,5 C 39 % 1023,0 hPa 0,0 l/m 0,0 km/h (0 Bft) SW 225 2,5 C 16,1 C 0,0 km/h (0 Bft)
17.03.2014 10:05 16,9 C 40 % 1023,2 hPa 0,0 l/m 0,0 km/h (0 Bft) SW 225 3,2 C 16,1 C 0,0 km/h (0 Bft)
17.03.2014 10:10 17,1 C 38 % 1023,2 hPa 0,0 l/m 0,0 km/h (0 Bft) SW 225 2,7 C 16,1 C 0,0 km/h (0 Bft)
17.03.2014 10:15 17,0 C 38 % 1023,2 hPa 0,0 l/m 0,0 km/h (0 Bft) SW 225 2,6 C 16,1 C 0,0 km/h (0 Bft)
17.03.2014 10:20 17,1 C 37 % 1023,2 hPa 0,0 l/m 0,0 km/h (0 Bft) SW 225 2,3 C 16,1 C 0,0 km/h (0 Bft)
17.03.2014 10:25 17,3 C 38 % 1023,4 hPa 0,0 l/m 0,0 km/h (0 Bft) SW 225 2,9 C 16,1 C 0,0 km/h (0 Bft)
17.03.2014 10:30 17,4 C 37 % 1023,4 hPa 0,0 l/m 0,0 km/h (0 Bft) SW 225 2,6 C 16,1 C 0,0 km/h (0 Bft)
17.03.2014 10:35 16,9 C 36 % 1023,4 hPa 0,0 l/m 0,0 km/h (0 Bft) SW 225 1,7 C 16,1 C 0,0 km/h (0 Bft)
17.03.2014 10:40 18,1 C 36 % 1023,4 hPa 0,0 l/m 0,0 km/h (0 Bft) SW 225 2,8 C 16,1 C 0,0 km/h (0 Bft)
17.03.2014 10:45 17,7 C 36 % 1022,9 hPa 0,0 l/m 0,0 km/h (0 Bft) SW 225 2,4 C 16,1 C 0,0 km/h (0 Bft)
17.03.2014 10:50 18,8 C 35 % 1022,9 hPa 0,0 l/m 0,0 km/h (0 Bft) SW 225 3,0 C 16,1 C 0,0 km/h (0 Bft)
17.03.2014 10:55 18,5 C 35 % 1022,9 hPa 0,0 l/m 0,0 km/h (0 Bft) SW 225 2,8 C 16,1 C 0,0 km/h (0 Bft)
17.03.2014 11:00 18,1 C 34 % 1022,9 hPa 0,0 l/m 0,0 km/h (0 Bft) SW 225 2,0 C 16,1 C 0,0 km/h (0 Bft)
17.03.2014 11:05 18,3 C 34 % 1023,5 hPa 0,0 l/m 0,0 km/h (0 Bft) SW 225 2,2 C 16,1 C 0,0 km/h (0 Bft)
17.03.2014 11:10 18,8 C 34 % 1023,5 hPa 0,0 l/m 0,0 km/h (0 Bft) SW 225 2,6 C 16,1 C 0,0 km/h (0 Bft)
17.03.2014 11:15 18,6 C 31 % 1023,5 hPa 0,0 l/m 0,0 km/h (0 Bft) SW 225 1,1 C 16,1 C 0,0 km/h (0 Bft)
17.03.2014 11:20 18,0 C 31 % 1023,5 hPa 0,0 l/m 0,0 km/h (0 Bft) SW 225 0,6 C 16,1 C 0,0 km/h (0 Bft)
17.03.2014 11:25 18,1 C 30 % 1023,3 hPa 0,0 l/m 0,0 km/h (0 Bft) SW 225 0,3 C 16,1 C 0,0 km/h (0 Bft)
17.03.2014 11:30 18,1 C 30 % 1023,3 hPa 0,0 l/m 0,0 km/h (0 Bft) SW 225 0,3 C 16,1 C 0,0 km/h (0 Bft)
17.03.2014 11:35 18,0 C 30 % 1023,3 hPa 0,0 l/m 0,0 km/h (0 Bft) SW 225 0,2 C 16,1 C 0,0 km/h (0 Bft)
17.03.2014 11:40 18,5 C 31 % 1023,3 hPa 0,0 l/m 0,0 km/h (0 Bft) SW 225 1,1 C 16,1 C 0,0 km/h (0 Bft)
17.03.2014 11:45 18,7 C 31 % 1023,3 hPa 0,0 l/m 0,0 km/h (0 Bft) SW 225 1,2 C 16,1 C 0,0 km/h (0 Bft)
17.03.2014 11:50 18,7 C 31 % 1023,3 hPa 0,0 l/m 0,0 km/h (0 Bft) SW 225 1,2 C 16,1 C 0,0 km/h (0 Bft)
17.03.2014 11:55 17,8 C 31 % 1023,3 hPa 0,0 l/m 0,0 km/h (0 Bft) SW 225 0,5 C 16,1 C 0,0 km/h (0 Bft)
17.03.2014 12:00 18,2 C 31 % 1023,3 hPa 0,0 l/m 0,0 km/h (0 Bft) SW 225 0,8 C 16,1 C 0,0 km/h (0 Bft)
17.03.2014 12:05 17,6 C 32 % 1023,4 hPa 0,0 l/m 0,0 km/h (0 Bft) SW 225 0,7 C 16,1 C 0,0 km/h (0 Bft)
17.03.2014 12:10 18,3 C 32 % 1023,4 hPa 0,0 l/m 0,0 km/h (0 Bft) SW 225 1,3 C 16,1 C 0,0 km/h (0 Bft)
17.03.2014 12:15 17,9 C 31 % 1023,4 hPa 0,0 l/m 0,0 km/h (0 Bft) SW 225 0,5 C 16,1 C 0,0 km/h (0 Bft)
17.03.2014 12:18 18,2 C 32 % 1023,4 hPa 0,0 l/m 0,0 km/h (0 Bft) SW 225 1,2 C 16,1 C 0,0 km/h (0 Bft)
17.03.2014 12:20 18,2 C 32 % 1023,4 hPa 0,0 l/m 0,0 km/h (0 Bft) SW 225 1,2 C 16,1 C 0,0 km/h (0 Bft)
17.03.2014 12:25 18,0 C 31 % 1023,1 hPa 0,0 l/m 0,0 km/h (0 Bft) SW 225 0,6 C 16,1 C 0,0 km/h (0 Bft)
17.03.2014 12:30 17,7 C 32 % 1023,1 hPa 0,0 l/m 0,0 km/h (0 Bft) SW 225 0,8 C 16,1 C 0,0 km/h (0 Bft)
17.03.2014 12:35 17,8 C 31 % 1023,1 hPa 0,0 l/m 0,0 km/h (0 Bft) SW 225 0,5 C 16,1 C 0,0 km/h (0 Bft)
17.03.2014 12:40 17,9 C 31 % 1023,1 hPa 0,0 l/m 0,0 km/h (0 Bft) SW 225 0,5 C 16,1 C 0,0 km/h (0 Bft)
17.03.2014 12:45 18,5 C 31 % 1023,1 hPa 0,0 l/m 0,0 km/h (0 Bft) SW 225 1,1 C 16,1 C 0,0 km/h (0 Bft)
17.03.2014 12:50 18,6 C 32 % 1023,1 hPa 0,0 l/m 0,0 km/h (0 Bft) SW 225 1,6 C 16,1 C 0,0 km/h (0 Bft)
17.03.2014 12:55 18,4 C 31 % 1023,1 hPa 0,0 l/m 0,0 km/h (0 Bft) SW 225 1,0 C 16,1 C 0,0 km/h (0 Bft)
17.03.2014 13:00 18,3 C 31 % 1023,1 hPa 0,0 l/m 0,0 km/h (0 Bft) SW 225 0,9 C 16,1 C 0,0 km/h (0 Bft)
17.03.2014 13:05 18,2 C 30 % 1023,0 hPa 0,0 l/m 0,0 km/h (0 Bft) SW 225 0,3 C 16,1 C 0,0 km/h (0 Bft)
17.03.2014 13:10 18,2 C 31 % 1023,0 hPa 0,0 l/m 0,0 km/h (0 Bft) SW 225 0,8 C 16,1 C 0,0 km/h (0 Bft)
17.03.2014 13:15 19,0 C 30 % 1023,0 hPa 0,0 l/m 0,0 km/h (0 Bft) SW 225 1,0 C 16,1 C 0,0 km/h (0 Bft)
17.03.2014 13:20 18,3 C 30 % 1023,0 hPa 0,0 l/m 0,0 km/h (0 Bft) SW 225 0,4 C 16,1 C 0,0 km/h (0 Bft)
17.03.2014 13:25 18,5 C 30 % 1022,8 hPa 0,0 l/m 0,0 km/h (0 Bft) SW 225 0,6 C 16,1 C 0,0 km/h (0 Bft)
17.03.2014 13:30 18,4 C 29 % 1022,8 hPa 0,0 l/m 0,0 km/h (0 Bft) SW 225 0,1 C 16,1 C 0,0 km/h (0 Bft)
17.03.2014 13:35 18,6 C 29 % 1022,8 hPa 0,0 l/m 0,0 km/h (0 Bft) SW 225 0,2 C 16,1 C 0,0 km/h (0 Bft)
17.03.2014 13:40 18,7 C 30 % 1022,8 hPa 0,0 l/m 0,0 km/h (0 Bft) SW 225 0,8 C 16,1 C 0,0 km/h (0 Bft)
17.03.2014 13:45 18,8 C 29 % 1022,6 hPa 0,0 l/m 0,0 km/h (0 Bft) SW 225 0,4 C 16,1 C 0,0 km/h (0 Bft)
17.03.2014 13:50 19,1 C 27 % 1022,6 hPa 0,0 l/m 0,0 km/h (0 Bft) SW 225 -0,3 C 16,1 C 0,0 km/h (0 Bft)
17.03.2014 13:55 19,0 C 28 % 1022,6 hPa 0,0 l/m 0,0 km/h (0 Bft) SW 225 0,1 C 16,1 C 0,0 km/h (0 Bft)
17.03.2014 14:00 19,2 C 26 % 1022,6 hPa 0,0 l/m 0,0 km/h (0 Bft) SW 225 -0,8 C 16,1 C 0,0 km/h (0 Bft)
17.03.2014 14:05 18,8 C 27 % 1022,4 hPa 0,0 l/m 0,0 km/h (0 Bft) SW 225 -0,6 C 16,1 C 0,0 km/h (0 Bft)
17.03.2014 14:10 19,0 C 27 % 1022,4 hPa 0,0 l/m 0,0 km/h (0 Bft) SW 225 -0,4 C 16,1 C 0,0 km/h (0 Bft)
17.03.2014 14:15 19,1 C 27 % 1022,4 hPa 0,0 l/m 0,0 km/h (0 Bft) SW 225 -0,3 C 16,1 C 0,0 km/h (0 Bft)
17.03.2014 14:20 18,8 C 27 % 1022,4 hPa 0,0 l/m 0,0 km/h (0 Bft) SW 225 -0,6 C 16,1 C 0,0 km/h (0 Bft)
17.03.2014 14:25 18,9 C 26 % 1022,2 hPa 0,0 l/m 0,0 km/h (0 Bft) SW 225 -1,0 C 16,1 C 0,0 km/h (0 Bft)
17.03.2014 14:30 19,2 C 25 % 1022,2 hPa 0,0 l/m 0,0 km/h (0 Bft) SW 225 -1,3 C 16,1 C 0,0 km/h (0 Bft)
17.03.2014 14:35 19,0 C 27 % 1022,2 hPa 0,0 l/m 0,0 km/h (0 Bft) SW 225 -0,4 C 16,1 C 0,0 km/h (0 Bft)
17.03.2014 14:40 19,0 C 27 % 1022,2 hPa 0,0 l/m 0,0 km/h (0 Bft) SW 225 -0,4 C 16,1 C 0,0 km/h (0 Bft)
17.03.2014 14:45 18,9 C 26 % 1022,1 hPa 0,0 l/m 0,0 km/h (0 Bft) SW 225 -1,0 C 16,1 C 0,0 km/h (0 Bft)
17.03.2014 14:50 18,7 C 27 % 1022,1 hPa 0,0 l/m 0,0 km/h (0 Bft) SW 225 -0,7 C 16,1 C 0,0 km/h (0 Bft)
17.03.2014 14:55 18,8 C 28 % 1022,1 hPa 0,0 l/m 0,0 km/h (0 Bft) SW 225 -0,1 C 16,1 C 0,0 km/h (0 Bft)
17.03.2014 15:00 19,1 C 27 % 1022,1 hPa 0,0 l/m 0,0 km/h (0 Bft) SW 225 -0,3 C 16,1 C 0,0 km/h (0 Bft)
17.03.2014 15:05 18,7 C 26 % 1021,8 hPa 0,0 l/m 0,0 km/h (0 Bft) SW 225 -1,2 C 16,1 C 0,0 km/h (0 Bft)
17.03.2014 15:10 19,2 C 27 % 1021,8 hPa 0,0 l/m 0,0 km/h (0 Bft) SW 225 -0,2 C 16,1 C 0,0 km/h (0 Bft)
17.03.2014 15:15 19,0 C 27 % 1021,8 hPa 0,0 l/m 0,0 km/h (0 Bft) SW 225 -0,4 C 16,1 C 0,0 km/h (0 Bft)
17.03.2014 15:20 18,8 C 27 % 1021,8 hPa 0,0 l/m 0,0 km/h (0 Bft) SW 225 -0,6 C 16,1 C 0,0 km/h (0 Bft)
17.03.2014 15:25 18,7 C 27 % 1021,2 hPa 0,0 l/m 0,0 km/h (0 Bft) SW 225 -0,7 C 16,1 C 0,0 km/h (0 Bft)
17.03.2014 15:30 18,6 C 28 % 1021,2 hPa 0,0 l/m 0,0 km/h (0 Bft) SW 225 -0,3 C 16,1 C 0,0 km/h (0 Bft)
17.03.2014 15:35 18,4 C 27 % 1021,2 hPa 0,0 l/m 0,0 km/h (0 Bft) SW 225 -0,9 C 16,1 C 0,0 km/h (0 Bft)
17.03.2014 15:40 18,3 C 27 % 1021,2 hPa 0,0 l/m 0,0 km/h (0 Bft) SW 225 -1,0 C 16,1 C 0,0 km/h (0 Bft)
17.03.2014 15:45 18,2 C 28 % 1021,4 hPa 0,0 l/m 0,0 km/h (0 Bft) SW 225 -0,6 C 16,1 C 0,0 km/h (0 Bft)
17.03.2014 15:50 18,0 C 28 % 1021,4 hPa 0,0 l/m 0,0 km/h (0 Bft) SW 225 -0,8 C 16,1 C 0,0 km/h (0 Bft)
17.03.2014 15:55 18,0 C 28 % 1021,4 hPa 0,0 l/m 0,0 km/h (0 Bft) SW 225 -0,8 C 16,1 C 0,0 km/h (0 Bft)
17.03.2014 16:00 17,8 C 27 % 1021,4 hPa 0,0 l/m 0,0 km/h (0 Bft) SW 225 -1,4 C 16,1 C 0,0 km/h (0 Bft)
17.03.2014 16:05 17,4 C 28 % 1020,8 hPa 0,0 l/m 0,0 km/h (0 Bft) SW 225 -1,3 C 16,1 C 0,0 km/h (0 Bft)
17.03.2014 16:10 17,1 C 27 % 1020,8 hPa 0,0 l/m 0,0 km/h (0 Bft) SW 225 -2,0 C 16,1 C 0,0 km/h (0 Bft)
17.03.2014 16:15 17,0 C 28 % 1020,8 hPa 0,0 l/m 0,0 km/h (0 Bft) SW 225 -1,6 C 16,1 C 0,0 km/h (0 Bft)
17.03.2014 16:20 16,7 C 30 % 1020,8 hPa 0,0 l/m 0,0 km/h (0 Bft) SW 225 -0,9 C 16,1 C 0,0 km/h (0 Bft)
17.03.2014 16:25 16,6 C 30 % 1020,5 hPa 0,0 l/m 0,0 km/h (0 Bft) SW 225 -1,0 C 16,1 C 0,0 km/h (0 Bft)
17.03.2014 16:30 16,5 C 30 % 1020,5 hPa 0,0 l/m 0,0 km/h (0 Bft) SW 225 -1,1 C 16,1 C 0,0 km/h (0 Bft)
17.03.2014 16:35 16,5 C 29 % 1020,5 hPa 0,0 l/m 0,0 km/h (0 Bft) SW 225 -1,6 C 16,1 C 0,0 km/h (0 Bft)
17.03.2014 16:40 16,4 C 30 % 1020,5 hPa 0,0 l/m 0,0 km/h (0 Bft) SW 225 -1,2 C 16,1 C 0,0 km/h (0 Bft)
17.03.2014 16:45 16,3 C 30 % 1020,4 hPa 0,0 l/m 0,0 km/h (0 Bft) SW 225 -1,3 C 16,1 C 0,0 km/h (0 Bft)
17.03.2014 16:50 15,9 C 30 % 1020,4 hPa 0,0 l/m 0,0 km/h (0 Bft) SW 225 -1,6 C 16,1 C 0,0 km/h (0 Bft)
17.03.2014 16:55 15,8 C 30 % 1020,4 hPa 0,0 l/m 0,0 km/h (0 Bft) SW 225 -1,7 C 16,1 C 0,0 km/h (0 Bft)
17.03.2014 17:00 15,2 C 30 % 1020,4 hPa 0,0 l/m 0,0 km/h (0 Bft) SW 225 -2,2 C 16,1 C 0,0 km/h (0 Bft)
17.03.2014 17:05 14,9 C 30 % 1020,2 hPa 0,0 l/m 0,0 km/h (0 Bft) SW 225 -2,5 C 16,1 C 0,0 km/h (0 Bft)
17.03.2014 17:10 14,7 C 31 % 1020,2 hPa 0,0 l/m 0,0 km/h (0 Bft) SW 225 -2,2 C 16,1 C 0,0 km/h (0 Bft)
17.03.2014 17:15 14,3 C 31 % 1020,2 hPa 0,0 l/m 0,0 km/h (0 Bft) SW 225 -2,6 C 16,1 C 0,0 km/h (0 Bft)
17.03.2014 17:18 14,5 C 31 % 1020,2 hPa 0,0 l/m 0,0 km/h (0 Bft) SW 225 -2,4 C 16,1 C 0,0 km/h (0 Bft)
17.03.2014 17:20 14,5 C 31 % 1020,2 hPa 0,0 l/m 0,0 km/h (0 Bft) SW 225 -2,4 C 16,1 C 0,0 km/h (0 Bft)
17.03.2014 17:25 14,4 C 31 % 1020,1 hPa 0,0 l/m 0,0 km/h (0 Bft) SW 225 -2,5 C 16,1 C 0,0 km/h (0 Bft)
17.03.2014 17:30 13,7 C 32 % 1020,1 hPa 0,0 l/m 0,0 km/h (0 Bft) SW 225 -2,7 C 16,1 C 0,0 km/h (0 Bft)
17.03.2014 17:35 13,6 C 33 % 1020,1 hPa 0,0 l/m 0,0 km/h (0 Bft) SW 225 -2,4 C 16,1 C 0,0 km/h (0 Bft)
17.03.2014 17:40 13,2 C 34 % 1020,1 hPa 0,0 l/m 0,0 km/h (0 Bft) SW 225 -2,3 C 16,1 C 0,0 km/h (0 Bft)
17.03.2014 17:45 12,9 C 36 % 1019,8 hPa 0,0 l/m 0,0 km/h (0 Bft) SW 225 -1,8 C 16,1 C 0,0 km/h (0 Bft)
17.03.2014 17:50 13,2 C 35 % 1019,8 hPa 0,0 l/m 0,0 km/h (0 Bft) SW 225 -1,9 C 16,1 C 0,0 km/h (0 Bft)
17.03.2014 17:55 13,2 C 35 % 1019,8 hPa 0,0 l/m 0,0 km/h (0 Bft) SW 225 -1,9 C 16,1 C 0,0 km/h (0 Bft)
17.03.2014 18:00 13,2 C 35 % 1019,8 hPa 0,0 l/m 0,0 km/h (0 Bft) SW 225 -1,9 C 16,1 C 0,0 km/h (0 Bft)
17.03.2014 18:05 13,0 C 35 % 1019,8 hPa 0,0 l/m 0,0 km/h (0 Bft) SW 225 -2,1 C 16,1 C 0,0 km/h (0 Bft)
17.03.2014 18:10 12,8 C 37 % 1019,8 hPa 0,0 l/m 0,0 km/h (0 Bft) SW 225 -1,5 C 16,1 C 0,0 km/h (0 Bft)
17.03.2014 18:15 12,7 C 37 % 1019,8 hPa 0,0 l/m 0,0 km/h (0 Bft) SW 225 -1,6 C 16,1 C 0,0 km/h (0 Bft)
17.03.2014 18:20 12,3 C 38 % 1019,8 hPa 0,0 l/m 0,0 km/h (0 Bft) SW 225 -1,6 C 16,1 C 0,0 km/h (0 Bft)
17.03.2014 18:25 11,9 C 39 % 1019,9 hPa 0,0 l/m 0,0 km/h (0 Bft) SW 225 -1,6 C 16,1 C 0,0 km/h (0 Bft)
17.03.2014 18:30 11,0 C 40 % 1019,9 hPa 0,0 l/m 0,0 km/h (0 Bft) SW 225 -2,1 C 16,1 C 0,0 km/h (0 Bft)
17.03.2014 18:35 10,3 C 42 % 1019,9 hPa 0,0 l/m 0,0 km/h (0 Bft) SW 225 -2,0 C 16,1 C 0,0 km/h (0 Bft)
17.03.2014 18:40 10,3 C 45 % 1019,9 hPa 0,0 l/m 0,0 km/h (0 Bft) SW 225 -1,1 C 16,1 C 0,0 km/h (0 Bft)
17.03.2014 18:45 10,6 C 45 % 1020,0 hPa 0,0 l/m 0,0 km/h (0 Bft) SW 225 -0,8 C 16,1 C 0,0 km/h (0 Bft)
17.03.2014 18:50 11,1 C 44 % 1020,0 hPa 0,0 l/m 0,0 km/h (0 Bft) SW 225 -0,7 C 16,1 C 0,0 km/h (0 Bft)
17.03.2014 18:55 11,2 C 44 % 1020,0 hPa 0,0 l/m 0,0 km/h (0 Bft) SW 225 -0,6 C 16,1 C 0,0 km/h (0 Bft)
17.03.2014 19:00 11,5 C 43 % 1020,0 hPa 0,0 l/m 0,0 km/h (0 Bft) SW 225 -0,6 C 16,1 C 0,0 km/h (0 Bft)
17.03.2014 19:05 11,5 C 44 % 1020,4 hPa 0,0 l/m 0,0 km/h (0 Bft) SW 225 -0,3 C 16,1 C 0,0 km/h (0 Bft)
17.03.2014 19:10 11,4 C 44 % 1020,4 hPa 0,0 l/m 0,0 km/h (0 Bft) SW 225 -0,4 C 16,1 C 0,0 km/h (0 Bft)
17.03.2014 19:15 11,4 C 45 % 1020,4 hPa 0,0 l/m 0,0 km/h (0 Bft) SW 225 -0,1 C 16,1 C 0,0 km/h (0 Bft)
17.03.2014 19:20 10,9 C 46 % 1020,4 hPa 0,0 l/m 0,0 km/h (0 Bft) SW 225 -0,3 C 16,1 C 0,0 km/h (0 Bft)
17.03.2014 19:25 10,7 C 46 % 1020,5 hPa 0,0 l/m 0,0 km/h (0 Bft) SW 225 -0,4 C 16,1 C 0,0 km/h (0 Bft)
17.03.2014 19:30 10,8 C 47 % 1020,5 hPa 0,0 l/m 0,0 km/h (0 Bft) SW 225 -0,1 C 16,1 C 0,0 km/h (0 Bft)
17.03.2014 19:35 10,6 C 48 % 1020,5 hPa 0,0 l/m 0,0 km/h (0 Bft) SW 225 0,1 C 16,1 C 0,0 km/h (0 Bft)
17.03.2014 19:40 10,7 C 48 % 1020,5 hPa 0,0 l/m 0,0 km/h (0 Bft) SW 225 0,1 C 16,1 C 0,0 km/h (0 Bft)
17.03.2014 19:45 10,6 C 49 % 1020,2 hPa 0,0 l/m 0,0 km/h (0 Bft) SW 225 0,3 C 16,1 C 0,0 km/h (0 Bft)
17.03.2014 19:50 10,6 C 50 % 1020,2 hPa 0,0 l/m 0,0 km/h (0 Bft) SW 225 0,6 C 16,1 C 0,0 km/h (0 Bft)
17.03.2014 19:55 10,4 C 51 % 1020,2 hPa 0,0 l/m 0,0 km/h (0 Bft) SW 225 0,7 C 16,1 C 0,0 km/h (0 Bft)
17.03.2014 20:00 10,5 C 52 % 1020,2 hPa 0,0 l/m 0,0 km/h (0 Bft) SW 225 1,1 C 16,1 C 0,0 km/h (0 Bft)
17.03.2014 20:05 10,5 C 51 % 1020,6 hPa 0,0 l/m 0,0 km/h (0 Bft) SW 225 0,8 C 16,1 C 0,0 km/h (0 Bft)
17.03.2014 20:10 10,2 C 52 % 1020,6 hPa 0,0 l/m 0,0 km/h (0 Bft) SW 225 0,8 C 16,1 C 0,0 km/h (0 Bft)
17.03.2014 20:15 9,6 C 53 % 1020,6 hPa 0,0 l/m 0,0 km/h (0 Bft) SW 225 0,5 C 16,1 C 0,0 km/h (0 Bft)
17.03.2014 20:20 9,1 C 54 % 1020,6 hPa 0,0 l/m 0,0 km/h (0 Bft) SW 225 0,3 C 16,1 C 0,0 km/h (0 Bft)
17.03.2014 20:25 8,9 C 55 % 1020,5 hPa 0,0 l/m 0,0 km/h (0 Bft) SW 225 0,4 C 16,1 C 0,0 km/h (0 Bft)
17.03.2014 20:30 8,7 C 56 % 1020,5 hPa 0,0 l/m 0,0 km/h (0 Bft) SW 225 0,4 C 16,1 C 0,0 km/h (0 Bft)
17.03.2014 20:35 8,4 C 56 % 1020,5 hPa 0,0 l/m 0,0 km/h (0 Bft) SW 225 0,1 C 16,1 C 0,0 km/h (0 Bft)
17.03.2014 20:40 8,3 C 56 % 1020,5 hPa 0,0 l/m 0,0 km/h (0 Bft) SW 225 0,0 C 16,1 C 0,0 km/h (0 Bft)
17.03.2014 20:45 8,2 C 56 % 1020,6 hPa 0,0 l/m 0,0 km/h (0 Bft) SW 225 -0,0 C 16,1 C 0,0 km/h (0 Bft)
17.03.2014 20:50 7,9 C 57 % 1020,6 hPa 0,0 l/m 0,0 km/h (0 Bft) SW 225 -0,1 C 16,1 C 0,0 km/h (0 Bft)
17.03.2014 20:55 7,8 C 58 % 1020,6 hPa 0,0 l/m 0,0 km/h (0 Bft) SW 225 0,1 C 16,1 C 0,0 km/h (0 Bft)
17.03.2014 21:00 7,7 C 57 % 1020,6 hPa 0,0 l/m 0,0 km/h (0 Bft) SW 225 -0,3 C 16,1 C 0,0 km/h (0 Bft)
17.03.2014 21:05 7,6 C 58 % 1020,7 hPa 0,0 l/m 0,0 km/h (0 Bft) SW 225 -0,1 C 16,1 C 0,0 km/h (0 Bft)
17.03.2014 21:10 7,6 C 58 % 1020,7 hPa 0,0 l/m 0,0 km/h (0 Bft) SW 225 -0,1 C 16,1 C 0,0 km/h (0 Bft)
17.03.2014 21:15 7,5 C 58 % 1020,7 hPa 0,0 l/m 0,0 km/h (0 Bft) SW 225 -0,2 C 16,1 C 0,0 km/h (0 Bft)
17.03.2014 21:20 7,6 C 58 % 1020,7 hPa 0,0 l/m 0,0 km/h (0 Bft) SW 225 -0,1 C 16,1 C 0,0 km/h (0 Bft)
17.03.2014 21:25 7,4 C 58 % 1020,6 hPa 0,0 l/m 0,0 km/h (0 Bft) SW 225 -0,3 C 16,1 C 0,0 km/h (0 Bft)
17.03.2014 21:30 7,1 C 58 % 1020,6 hPa 0,0 l/m 0,0 km/h (0 Bft) SW 225 -0,6 C 16,1 C 0,0 km/h (0 Bft)
17.03.2014 21:35 7,1 C 58 % 1020,6 hPa 0,0 l/m 0,0 km/h (0 Bft) SW 225 -0,6 C 16,1 C 0,0 km/h (0 Bft)
17.03.2014 21:40 6,9 C 59 % 1020,6 hPa 0,0 l/m 0,0 km/h (0 Bft) SW 225 -0,5 C 16,1 C 0,0 km/h (0 Bft)
17.03.2014 21:45 6,9 C 59 % 1020,6 hPa 0,0 l/m 0,0 km/h (0 Bft) SW 225 -0,5 C 16,1 C 0,0 km/h (0 Bft)
17.03.2014 21:50 6,7 C 59 % 1020,6 hPa 0,0 l/m 0,0 km/h (0 Bft) SW 225 -0,7 C 16,1 C 0,0 km/h (0 Bft)
17.03.2014 21:55 7,0 C 59 % 1020,6 hPa 0,0 l/m 0,0 km/h (0 Bft) SW 225 -0,5 C 16,1 C 0,0 km/h (0 Bft)
17.03.2014 22:00 7,0 C 59 % 1020,6 hPa 0,0 l/m 0,0 km/h (0 Bft) SW 225 -0,5 C 16,1 C 0,0 km/h (0 Bft)
17.03.2014 22:05 7,1 C 59 % 1020,6 hPa 0,0 l/m 0,0 km/h (0 Bft) SW 225 -0,4 C 16,1 C 0,0 km/h (0 Bft)
17.03.2014 22:10 7,6 C 57 % 1020,6 hPa 0,0 l/m 0,0 km/h (0 Bft) SW 225 -0,4 C 16,1 C 0,0 km/h (0 Bft)
17.03.2014 22:15 7,5 C 57 % 1020,6 hPa 0,0 l/m 0,0 km/h (0 Bft) SW 225 -0,5 C 16,1 C 0,0 km/h (0 Bft)
17.03.2014 22:18 7,1 C 58 % 1020,6 hPa 0,0 l/m 0,0 km/h (0 Bft) SW 225 -0,6 C 16,1 C 0,0 km/h (0 Bft)
17.03.2014 22:20 7,1 C 58 % 1020,6 hPa 0,0 l/m 0,0 km/h (0 Bft) SW 225 -0,6 C 16,1 C 0,0 km/h (0 Bft)
17.03.2014 22:25 6,8 C 59 % 1020,5 hPa 0,0 l/m 0,0 km/h (0 Bft) SW 225 -0,6 C 16,1 C 0,0 km/h (0 Bft)
17.03.2014 22:30 6,1 C 59 % 1020,5 hPa 0,0 l/m 0,0 km/h (0 Bft) SW 225 -1,3 C 16,1 C 0,0 km/h (0 Bft)
17.03.2014 22:35 6,2 C 60 % 1020,5 hPa 0,0 l/m 0,0 km/h (0 Bft) SW 225 -1,0 C 16,1 C 0,0 km/h (0 Bft)
17.03.2014 22:40 4,8 C 64 % 1020,5 hPa 0,0 l/m 0,0 km/h (0 Bft) SW 225 -1,4 C 16,1 C 0,0 km/h (0 Bft)
17.03.2014 22:45 4,4 C 65 % 1020,6 hPa 0,0 l/m 0,0 km/h (0 Bft) SW 225 -1,6 C 16,1 C 0,0 km/h (0 Bft)
17.03.2014 22:50 4,1 C 66 % 1020,6 hPa 0,0 l/m 0,0 km/h (0 Bft) SW 225 -1,7 C 16,1 C 0,0 km/h (0 Bft)
17.03.2014 22:55 3,6 C 66 % 1020,6 hPa 0,0 l/m 0,0 km/h (0 Bft) SW 225 -2,1 C 16,1 C 0,0 km/h (0 Bft)
17.03.2014 23:00 3,8 C 71 % 1020,6 hPa 0,0 l/m 0,0 km/h (0 Bft) SW 225 -1,0 C 16,1 C 0,0 km/h (0 Bft)
17.03.2014 23:05 3,8 C 69 % 1020,8 hPa 0,0 l/m 0,0 km/h (0 Bft) SW 225 -1,4 C 16,1 C 0,0 km/h (0 Bft)
17.03.2014 23:10 4,4 C 69 % 1020,8 hPa 0,0 l/m 0,0 km/h (0 Bft) SW 225 -0,8 C 16,1 C 0,0 km/h (0 Bft)
17.03.2014 23:15 4,7 C 69 % 1020,8 hPa 0,0 l/m 0,0 km/h (0 Bft) SW 225 -0,5 C 16,1 C 0,0 km/h (0 Bft)
17.03.2014 23:20 4,2 C 70 % 1020,8 hPa 0,0 l/m 0,0 km/h (0 Bft) SW 225 -0,8 C 16,1 C 0,0 km/h (0 Bft)
17.03.2014 23:25 4,2 C 71 % 1020,6 hPa 0,0 l/m 0,0 km/h (0 Bft) SW 225 -0,6 C 16,1 C 0,0 km/h (0 Bft)
17.03.2014 23:30 3,8 C 70 % 1020,6 hPa 0,0 l/m 0,0 km/h (0 Bft) SW 225 -1,2 C 16,1 C 0,0 km/h (0 Bft)
17.03.2014 23:35 2,9 C 71 % 1020,6 hPa 0,0 l/m 0,0 km/h (0 Bft) SW 225 -1,8 C 16,1 C 0,0 km/h (0 Bft)
17.03.2014 23:40 2,8 C 73 % 1020,6 hPa 0,0 l/m 0,0 km/h (0 Bft) SW 225 -1,5 C 16,1 C 0,0 km/h (0 Bft)
17.03.2014 23:45 2,6 C 73 % 1020,5 hPa 0,0 l/m 0,0 km/h (0 Bft) SW 225 -1,7 C 16,1 C 0,0 km/h (0 Bft)
17.03.2014 23:50 2,9 C 76 % 1020,5 hPa 0,0 l/m 0,0 km/h (0 Bft) SW 225 -0,9 C 16,1 C 0,0 km/h (0 Bft)
17.03.2014 23:55 2,7 C 75 % 1020,5 hPa 0,0 l/m 0,0 km/h (0 Bft) SW 225 -1,3 C 16,1 C 0,0 km/h (0 Bft)
_ Min-Zeit 23:45 14:30 18:20 - 23:55 - - 17:30 23:55 23:55
Minimum _ 2,6 C 25 % 1019,8 hPa - 0,0 km/h (0 Bft) - - -2,7 C 16,1 C 0,0 km/h (0 Bft)
_ Max-Zeit 15:10 06:35 11:20 23:55 23:55 - - 08:35 23:55 23:55
Maximum _ 19,2 C 79 % 1023,5 hPa 0,0 l/m 0,0 km/h
SW (0 Bft)
- - 4,4 C 16,1 C 0,0 km/h
SW (0 Bft)
Durchschnitt _ 11,2 C 53 % 1021,5 hPa #0,0 l/m 0,0 km/h (0 Bft) - - - 0,8 C 16,1 C 0,0 km/h (0 Bft)